Location: Sternwarte_Laufen
(47.9344°N, 12.9346°E)
Time: 15:10:31
(UTC+02:00)

ISS - Pass Details

Date: 08 May 2026
Orbit: 414 x 424 km, 51.6° (Epoch: 21 May)

Event Time Altitude Azimuth Distance (km) Brightness Sun altitude
Exits shadow 04:07:27 - 287° (WNW) 1,814 -0.8 -13.3°
Reaches altitude 10° 04:08:16 10° 284° (WNW) 1,498 -1.3 -13.2°
Maximum altitude 04:11:25 38° 214° (SW) 650 -3.3 -12.8°
Drops below altitude 10° 04:14:34 10° 144° (SE) 1,496 -1.0 -12.4°
Sets 04:16:44 0° 137° (SE) 2,359 0.1 -12.2°
